ARIANE 40 R/B, 22830

Orbit data source: Space-Track

ARIANE 40 R/B, 22830 is space debris in SSO originally from a launch on Sun, 26 Sep 1993 UTC launched from the French Guiana (FRGUI). Debris objects in space refer to the collection of defunct objects orbiting the Earth. Examples of debris include non-operational satellites, rocket bodies, and fragments generated from explosions, collisions, or faulty payload assembly.

Loading next visibility...
Identifier
22830, 1993-061H
Orbit
SSO
Country
Flag of FRFR
Related business
Manufacturer
Ae/LesM
Mission
Spacecraft
Bus & Motor
ARIANE H10, Unknown motor
Mass
1,875 kg wet, 1,820 kg dry
Launch date (UTC)
1993-09-26 (33 years ago)
Launch vehicle
Unknown
Launch site
French Guiana (FRGUI)
Object type
Payload
Rocket body
Debris
Shape & HBR
Cyl, 5.9 m
Radar Cross Section
26.751 m², Large (>1 m²)

Expand to show TLE details & history
Last TLE update: 14 hours ago

TLE from 14 hours ago
0 ARIANE 40 R/B
1 22830U 93061H   26094.81507339  .00000297  00000-0  12454-3 0  9998
2 22830  98.4868 163.1810 0010398 200.8087 159.2675 14.32875892697844
Epoch: 2026-04-04T19:33Z
TLE epoch observation values (Epoch: 2026-04-04T19:33:42.340Z)
Latitude
-0.00008°
Longitude
36.62516°
Altitude
792.039 km
Speed
7.454 km/s
True Right ascension
10h 52m 43s
True Declination
0° 00' 00"
Sunlit
Object was in full shadow at epoch
Visualization orbit readout
Latitude
Unknown
Longitude
Unknown
Altitude
Unknown
Speed
Unknown
Apparent Right ascension
Unknown
Apparent Declination
Unknown
Sunlit
N/A
Visualization observer readout
Local Sidereal Time
15:46:46
Azimuth
Unknown
Elevation
Unknown
Doppler factor
Unknown
Orbital elements
Apogee altitude
786.707 km
Perigee altitude
771.822 km
Semi-major axis
7,157.402 km
Eccentricity
0.00104
Inclination
98.4868°
RAAN
163.181°
Arg. of periapsis
200.8087°
True anomaly
159.30963°
Mean anomaly
159.2675°
Eccentric anomaly
159.28857°
Mean motion
3.58435 °/min
Orbital period
100.44 mins
BSTAR
0.00012454
Loading maneuver chart data...
Computing Atmospheric mass density...
Loading historical data...
Loading historical data...
Loading historical data...
Loading historical data...
Loading historical data...
Loading historical data...
Loading historical data...

Documentation

Showing up to 5 results
|